Tracking 19720 objects as of 26-Jun-2019
HD Live streaming from Space Station
objects crossing your sky now

FLOCK 3P 45

Track FLOCK 3P 45 now!
10-day predictions
FLOCK 3P 45 is classified as:


NORAD ID: 42005
Int'l Code: 2017-008BK
Perigee: 487.2 km
Apogee: 499.6 km
Inclination: 97.4 °
Period: 94.3 minutes
Semi major axis: 6864 km
RCS: Unknown
Launch date: February 15, 2017
Source: United States (US)
Launch site: SRIHARIKOTA (SRI)
aabbcc
Your satellite tracking list
Your tracking list is empty




NASA's NSSDC Master Catalog

Two Line Element Set (TLE):
1 42005U 17008BK  19176.15126527  .00001576  00000-0  63133-4 0  9999
2 42005  97.4069 243.6602 0008983 129.9584 230.2445 15.26506243130971
Source of the keplerian elements: AFSPC